Simultaneous Nadir Overpasses (SNOs) Predictions

Prediction of SNOs between AQUA and METOP-A Satellite Orbit:

Table of predicted SNOs for the next 14.0 days since TLE Epoch: 6/12/2021
Index Date (AQUA) Time (AQUA) Lat,Lon (AQUA) SZA (AQUA ) Date (METOP-A) Time (METOP-A) Lat,Lon (METOP-A) SZA (METOP-A ) Distance(km) Time Diff (sec)
1 06/13/2021 20:28:33 -77.44, 36.63 125.32 06/13/2021 20:27:46 -77.43, 36.61 125.31 0.76 47
2 06/13/2021 21:18:01 77.49,-155.94 54.74 06/13/2021 21:18:25 77.48,-155.88 54.72 2.09 24
3 06/16/2021 16:02:48 -77.44, 103.07 125.43 06/16/2021 16:02:07 -77.47, 103.09 125.39 3.39 41
4 06/16/2021 16:52:16 77.49, -89.50 54.64 06/16/2021 16:52:46 77.51, -89.40 54.64 3.16 30
5 06/19/2021 11:37:02 -77.44, 169.50 125.47 06/19/2021 11:36:28 -77.45, 169.37 125.44 3.42 34
6 06/19/2021 12:26:30 77.49, -23.08 54.60 06/19/2021 12:27:07 77.49, -23.12 54.59 1.06 37
7 06/22/2021 07:11:18 -77.49,-124.29 125.40 06/22/2021 07:10:49 -77.48,-124.16 125.41 3.30 29
8 06/22/2021 08:00:45 77.50, 43.32 54.62 06/22/2021 08:01:28 77.52, 43.34 54.62 2.12 43
9 06/25/2021 02:45:32 -77.47, -57.73 125.38 06/25/2021 02:45:11 -77.47, -57.89 125.35 3.97 21



Historial Predications of SNOs between AQUA and METOP-A
